Location: Villingen
(48.0639°N, 8.4609°E)
Time: 06:04:52
(UTC+01:00)

ISS - Pass Details

Date: 11 November 2017
Orbit: 402 x 407 km, 51.6° (Epoch: 19 November)

Event Time Altitude Azimuth Distance (km) Brightness Sun altitude
Exits shadow 05:10:04 35° 44° (NE) 669 -2.4 -22.9°
Drops below altitude 10° 05:12:25 10° 78° (ENE) 1,457 0.0 -22.5°
Sets 05:14:33 0° 86° (E) 2,315 1.5 -22.1°
